Wisconsin Dells, Wisconsin, United States (53965)
Lat: 43.63N, Lon: 89.77W
Wx Zone: WIZ057
Local Info
Past Weather Observations for Today

NOTE: This archive is for the closest National Weather Service station to Wisconsin Dells. Information may differ from the station used for current weather conditions.

Click here for Long-term Archive

Time Weather Temperature Dewpoint Humidity Pressure Winds Precip Visibility
22:55
Overcast
41°F / 5°C 30°F / -1°C 66% 30.09 in
(1019 mb)
NW 12.7 mph
(NW 20 kph)
- 10SM
22:35
Mostly Cloudy
41°F / 5°C 30°F / -1°C 66% 30.09 in
(1019 mb)
NNW 10.4 mph
(NNW 17 kph)
- 10SM
22:15
Mostly Cloudy
41°F / 5°C 30°F / -1°C 66% 30.09 in
(1019 mb)
NW 10.4 mph
(NW 17 kph)
- 10SM
21:55
Overcast
43°F / 6°C 30°F / -1°C 61% 30.09 in
(1019 mb)
NW 8.1 mph
(NW 13 kph)
- 10SM
21:35
Overcast
43°F / 6°C 32°F / 0°C 66% 30.09 in
(1019 mb)
NNW 12.7 mph
(NNW 20 kph)
- 10SM
21:15
Overcast
45°F / 7°C 32°F / 0°C 61% 30.09 in
(1019 mb)
NW 10.4 mph
(NW 17 kph)
- 10SM
20:55
Overcast
45°F / 7°C 34°F / 1°C 66% 30.09 in
(1019 mb)
NNW 11.5 mph
(NNW 19 kph)
- 10SM
20:35
Overcast
45°F / 7°C 34°F / 1°C 66% 30.06 in
(1018 mb)
NNW 6.9 mph
(NNW 11 kph)
- 10SM
20:15
Overcast
45°F / 7°C 36°F / 2°C 71% 30.06 in
(1018 mb)
NW 6.9 mph
(NW 11 kph)
- 10SM
19:55
Overcast
45°F / 7°C 36°F / 2°C 71% 30.06 in
(1018 mb)
WNW 5.8 mph
(WNW 9 kph)
- 10SM
19:35
Overcast
45°F / 7°C 36°F / 2°C 71% 30.06 in
(1018 mb)
WNW 5.8 mph
(WNW 9 kph)
- 10SM
19:15
Overcast
45°F / 7°C 36°F / 2°C 71% 30.06 in
(1018 mb)
W 4.6 mph
(W 7 kph)
- 10SM
18:55
Overcast
45°F / 7°C 36°F / 2°C 71% 30.06 in
(1018 mb)
W 4.6 mph
(W 7 kph)
- 10SM
18:35
Mostly Cloudy
Drizzle
45°F / 7°C 36°F / 2°C 71% 30.06 in
(1018 mb)
W 4.6 mph
(W 7 kph)
- 10SM
18:15
Overcast
45°F / 7°C 36°F / 2°C 71% 30.06 in
(1018 mb)
W 3.5 mph
(W 6 kph)
- 10SM
17:55
Overcast
45°F / 7°C 36°F / 2°C 71% 30.06 in
(1018 mb)
W 3.5 mph
(W 6 kph)
- 10SM
17:35
Overcast
45°F / 7°C 36°F / 2°C 71% 30.06 in
(1018 mb)
W 3.5 mph
(W 6 kph)
- 10SM
17:15
Overcast
45°F / 7°C 36°F / 2°C 71% 30.06 in
(1018 mb)
SSW 3.5 mph
(SSW 6 kph)
- 10SM
16:55
Overcast
46°F / 8°C 36°F / 2°C 66% 30.06 in
(1018 mb)
SSW 3.5 mph
(SSW 6 kph)
- 10SM
16:35
Overcast
46°F / 8°C 36°F / 2°C 66% 30.06 in
(1018 mb)
W 4.6 mph
(W 7 kph)
- 10SM
16:15
Overcast
46°F / 8°C 36°F / 2°C 66% 30.06 in
(1018 mb)
W 4.6 mph
(W 7 kph)
- 10SM
15:55
Overcast
46°F / 8°C 36°F / 2°C 66% 30.06 in
(1018 mb)
W 4.6 mph
(W 7 kph)
- 10SM
15:35
Overcast
46°F / 8°C 36°F / 2°C 66% 30.06 in
(1018 mb)
W 6.9 mph
(W 11 kph)
- 10SM
15:15
Overcast
46°F / 8°C 36°F / 2°C 66% 30.06 in
(1018 mb)
W 8.1 mph
(W 13 kph)
- 10SM
14:55
Overcast
48°F / 9°C 36°F / 2°C 62% 30.06 in
(1018 mb)
W 6.9 mph
(W 11 kph)
- 10SM
14:35
Overcast
48°F / 9°C 34°F / 1°C 58% 30.06 in
(1018 mb)
WNW 9.2 mph
(WNW 15 kph)
- 10SM
14:15
Overcast
48°F / 9°C 36°F / 2°C 62% 30.06 in
(1018 mb)
WNW 5.8 mph
(WNW 9 kph)
- 10SM
13:55
Overcast
48°F / 9°C 34°F / 1°C 58% 30.06 in
(1018 mb)
WNW 5.8 mph
(WNW 9 kph)
- 10SM
13:35
Overcast
48°F / 9°C 34°F / 1°C 58% 30.06 in
(1018 mb)
W 5.8 mph
(W 9 kph)
- 10SM
13:15
Mostly Cloudy
48°F / 9°C 36°F / 2°C 62% 30.06 in
(1018 mb)
W 5.8 mph
(W 9 kph)
- 10SM
12:55
Overcast
46°F / 8°C 34°F / 1°C 62% 30.06 in
(1018 mb)
W 5.8 mph
(W 9 kph)
- 10SM
12:35
Overcast
46°F / 8°C 34°F / 1°C 62% 30.06 in
(1018 mb)
WNW 5.8 mph
(WNW 9 kph)
- 10SM
12:15
Overcast
46°F / 8°C 34°F / 1°C 62% 30.06 in
(1018 mb)
W 4.6 mph
(W 7 kph)
- 10SM
11:55
Overcast
46°F / 8°C 34°F / 1°C 62% 30.06 in
(1018 mb)
SSW 5.8 mph
(SSW 9 kph)
- 10SM
11:35
Overcast
46°F / 8°C 34°F / 1°C 62% 30.06 in
(1018 mb)
SSW 6.9 mph
(SSW 11 kph)
- 10SM
11:15
Overcast
46°F / 8°C 34°F / 1°C 62% 30.09 in
(1019 mb)
SSW 8.1 mph
(SSW 13 kph)
- 10SM
10:55
Mostly Cloudy
46°F / 8°C 34°F / 1°C 62% 30.09 in
(1019 mb)
SW 4.6 mph
(SW 7 kph)
- 10SM
10:35
Mostly Cloudy
46°F / 8°C 34°F / 1°C 62% 30.09 in
(1019 mb)
SW 5.8 mph
(SW 9 kph)
- 10SM
10:15
Mostly Cloudy
45°F / 7°C 34°F / 1°C 66% 30.09 in
(1019 mb)
SSW 6.9 mph
(SSW 11 kph)
- 10SM
09:55
Partly Cloudy
43°F / 6°C 34°F / 1°C 71% 30.09 in
(1019 mb)
SSW 6.9 mph
(SSW 11 kph)
- 10SM
09:35
Partly Cloudy
43°F / 6°C 34°F / 1°C 71% 30.09 in
(1019 mb)
SSW 6.9 mph
(SSW 11 kph)
- 10SM
09:15
Partly Cloudy
41°F / 5°C 36°F / 2°C 81% 30.09 in
(1019 mb)
Calm - 10SM
08:55
Overcast
39°F / 4°C 34°F / 1°C 81% 30.09 in
(1019 mb)
SW 3.5 mph
(SW 6 kph)
- 10SM
08:35
Overcast
39°F / 4°C 34°F / 1°C 81% 30.09 in
(1019 mb)
Calm - 10SM
08:15
Overcast
37°F / 3°C 34°F / 1°C 87% 30.09 in
(1019 mb)
Calm - 10SM
07:55
Overcast
37°F / 3°C 34°F / 1°C 87% 30.09 in
(1019 mb)
Calm - 10SM
07:35
Mostly Cloudy
36°F / 2°C 34°F / 1°C 93% 30.09 in
(1019 mb)
Calm - 10SM
07:15
Partly Cloudy
36°F / 2°C 32°F / 0°C 87% 30.09 in
(1019 mb)
Calm - 10SM
06:55
Partly Cloudy
34°F / 1°C 32°F / 0°C 93% 30.09 in
(1019 mb)
Calm - 10SM
06:35
Partly Cloudy
34°F / 1°C 32°F / 0°C 93% 30.09 in
(1019 mb)
Calm - 10SM
06:15
Partly Cloudy
34°F / 1°C 32°F / 0°C 93% 30.09 in
(1019 mb)
Calm - 10SM
05:55
Partly Cloudy
32°F / 0°C 32°F / 0°C 100% 30.09 in
(1019 mb)
Calm - 10SM
05:35
Partly Cloudy
32°F / 0°C 32°F / 0°C 100% 30.09 in
(1019 mb)
S 3.5 mph
(S 6 kph)
- 10SM
05:15
Partly Cloudy
32°F / 0°C 32°F / 0°C 100% 30.09 in
(1019 mb)
Calm - 10SM
04:55
Partly Cloudy
32°F / 0°C 32°F / 0°C 100% 30.09 in
(1019 mb)
Calm - 10SM
04:35
Partly Cloudy
32°F / 0°C 30°F / -1°C 93% 30.09 in
(1019 mb)
Calm - 10SM
04:15
Partly Cloudy
32°F / 0°C 30°F / -1°C 93% 30.09 in
(1019 mb)
Calm - 10SM
03:55
Clear
30°F / -1°C 30°F / -1°C 100% 30.09 in
(1019 mb)
S 3.5 mph
(S 6 kph)
- 10SM
03:35
Clear
30°F / -1°C 30°F / -1°C 100% 30.09 in
(1019 mb)
Calm - 10SM
03:15
Clear
32°F / 0°C 30°F / -1°C 93% 30.09 in
(1019 mb)
Calm - 10SM
02:55
Clear
32°F / 0°C 30°F / -1°C 93% 30.09 in
(1019 mb)
Calm - 10SM
02:35
Clear
32°F / 0°C 30°F / -1°C 93% 30.09 in
(1019 mb)
Calm - 10SM
02:15
Clear
32°F / 0°C 30°F / -1°C 93% 30.09 in
(1019 mb)
Calm - 10SM
01:55
Clear
32°F / 0°C 30°F / -1°C 93% 30.09 in
(1019 mb)
Calm - 10SM
01:35
Clear
32°F / 0°C 30°F / -1°C 93% 30.09 in
(1019 mb)
Calm - 10SM
01:15
Clear
32°F / 0°C 30°F / -1°C 93% 30.09 in
(1019 mb)
Calm - 10SM
00:55
Clear
32°F / 0°C 30°F / -1°C 93% 30.09 in
(1019 mb)
Calm - 10SM
00:35
Clear
32°F / 0°C 30°F / -1°C 93% 30.09 in
(1019 mb)
Calm - 10SM
00:15
Clear
32°F / 0°C 30°F / -1°C 93% 30.09 in
(1019 mb)
Calm - 10SM
Time Weather Temperature Dewpoint Humidity Pressure Winds Precip Visibility


Weather for websites

WeatherForYou.com, LLC is not responsible for any damages or problems caused by this service. Current weather conditions are obtained from the closest station including government and personal stations which may have varying degrees of accuracy. Weather forecasts are derived from the NOAA NDFD. Like all things, this site belongs to Jesus Christ... He just trusts me to maintain it. If you have any questions or comments email webmaster@weatherforyou.com

Copyright © 2014, WeatherForYou.com LLC. All rights reserved.